Weather History for Concord, NH

Change the Weather History Date:

Saturday, February 23, 2013

  Actual Average Record
Temperature  
Mean Temperature 31 °F 26 °F  
Max Temperature 35 °F 37 °F 63 °F (1875)
Min Temperature 26 °F 16 °F -12 °F (1963)
Degree Days  
Heating Degree Days 34 39  
Month to date heating degree days 951 949  
Since 1 July heating degree days 4770 5071  
Cooling Degree Days 0 0  
Month to date cooling degree days 0 0  
Year to date cooling degree days 0 0  
Moisture  
Dew Point 28 °F    
Average Humidity 83    
Maximum Humidity 96    
Minimum Humidity 69    
Precipitation  
Precipitation 0.11 in 0.10 in 1.00 in (1919)
Month to date precipitation 1.99 2.12  
Year to date precipitation 3.54 4.82  
Snow  
Snow 0.80 in 0.50 in 10.00 in (1919)
Month to date snowfall 28.3 10.3  
Since 1 July snowfall 51.9 45.5  
Snow Depth 10.00 in    
Sea Level Pressure  
Sea Level Pressure 30.12 in    
Wind  
Wind Speed 2 mph (ESE)    
Max Wind Speed 10 mph    
Max Gust Speed 15 mph    
Visibility 5 miles    
Events Snow    
T = Trace of Precipitation, MM = Missing Value Source: NWS Daily Summary

Daily Weather History Graph

Daily Weather History Graph

Search for Another Location

Airport:

Trip Planner

Search our weather history database for the weather conditions in past years. The results will help you decide how hot, cold, wet, or windy it might be!

Date:

Astronomy

Feb. 23, 2013 Rise Set
Actual Time 6:31 AM EST 5:27 PM EST
Civil Twilight 6:02 AM EST 5:56 PM EST
Nautical Twilight 5:29 AM EST 6:29 PM EST
Astronomical Twilight 4:56 AM EST 7:02 PM EST
Moon 3:33 PM EST (2/23) 4:54 AM EST (2/23)
Length of Visible Light 11h 53m
Length of Day
10h 56m
Waxing Gibbous, 95% of the Moon is Illuminated
Feb 23
Waxing Gibbous
Feb 25
Full
Mar 4
Last Quarter
Mar 11
New
Mar 19
First Quarter

Hourly Weather History & Observations

Time (EST) Temp. Windchill Dew Point Humidity Pressure Visibility Wind Dir Wind Speed Gust Speed Precip Events Conditions
12:51 AM 30.0 °F - 21.9 °F 72% 30.33 in 10.0 mi Calm Calm - N/A   Scattered Clouds
1:51 AM 27.0 °F - 21.0 °F 78% 30.31 in 10.0 mi Calm Calm - N/A   Overcast
2:51 AM 28.0 °F - 21.9 °F 78% 30.30 in 10.0 mi Calm Calm - N/A   Overcast
3:51 AM 28.9 °F - 21.9 °F 75% 30.29 in 10.0 mi Calm Calm - N/A   Overcast
4:51 AM 28.9 °F - 21.9 °F 75% 30.27 in 10.0 mi Calm Calm - N/A   Overcast
5:09 AM 28.4 °F - 23.0 °F 80% 30.25 in 10.0 mi Calm Calm - N/A   Overcast
5:51 AM 30.0 °F - 23.0 °F 75% 30.26 in 10.0 mi Calm Calm - N/A   Overcast
6:49 AM 28.4 °F - 23.0 °F 80% 30.24 in 8.0 mi Calm Calm - N/A   Overcast
6:51 AM 28.9 °F - 23.0 °F 78% 30.26 in 7.0 mi Calm Calm - 0.00 in Snow Light Snow
7:06 AM 28.4 °F - 24.8 °F 86% 30.24 in 2.0 mi Calm Calm - 0.00 in Snow Light Snow
7:19 AM 28.4 °F - 24.8 °F 86% 30.24 in 5.0 mi Calm Calm - 0.00 in Snow Light Snow
7:47 AM 30.2 °F - 24.8 °F 80% 30.23 in 10.0 mi Calm Calm - 0.00 in   Overcast
7:51 AM 30.0 °F - 25.0 °F 82% 30.25 in 10.0 mi Calm Calm - 0.00 in   Overcast
8:16 AM 30.2 °F - 26.6 °F 86% 30.23 in 10.0 mi Calm Calm - N/A   Overcast
8:38 AM 30.2 °F - 24.8 °F 80% 30.23 in 10.0 mi Calm Calm - N/A   Overcast
8:51 AM 30.9 °F - 25.0 °F 79% 30.24 in 10.0 mi Calm Calm - N/A   Overcast
9:51 AM 32.0 °F - 26.1 °F 79% 30.22 in 10.0 mi Calm Calm - N/A   Overcast
10:51 AM 33.1 °F 26.9 °F 27.0 °F 78% 30.21 in 10.0 mi SE 6.9 mph - N/A   Overcast
10:59 AM 33.8 °F 27.0 °F 26.6 °F 75% 30.19 in 9.0 mi SSE 8.1 mph - N/A   Overcast
11:15 AM 33.8 °F 28.6 °F 28.4 °F 81% 30.18 in 3.0 mi SE 5.8 mph - 0.00 in Snow Light Snow
11:17 AM 33.8 °F 28.6 °F 28.4 °F 81% 30.18 in 2.5 mi ESE 5.8 mph - 0.00 in Snow Light Snow
11:19 AM 33.8 °F 29.6 °F 28.4 °F 81% 30.17 in 3.0 mi SE 4.6 mph - 0.00 in Snow Light Snow
11:51 AM 33.1 °F 27.7 °F 28.0 °F 82% 30.17 in 9.0 mi SE 5.8 mph - 0.00 in   Overcast
11:59 AM 33.8 °F 30.8 °F 28.4 °F 81% 30.15 in 10.0 mi East 3.5 mph - N/A   Overcast
12:51 PM 34.0 °F 28.0 °F 27.0 °F 75% 30.15 in 10.0 mi SE 6.9 mph - N/A   Overcast
1:51 PM 34.0 °F 28.0 °F 28.0 °F 79% 30.14 in 10.0 mi SE 6.9 mph - N/A   Overcast
2:33 PM 33.8 °F 27.0 °F 28.4 °F 81% 30.11 in 1.8 mi SE 8.1 mph - 0.00 in Snow Light Snow
2:41 PM 33.8 °F 29.6 °F 30.2 °F 87% 30.11 in 1.0 mi SE 4.6 mph - 0.00 in Snow Light Snow
2:49 PM 33.8 °F 29.6 °F 30.2 °F 87% 30.11 in 0.8 mi SE 4.6 mph - 0.01 in Snow Light Snow
2:51 PM 33.1 °F 30.0 °F 30.0 °F 89% 30.12 in 0.8 mi SE 3.5 mph - 0.01 in Snow Light Snow
3:00 PM 33.8 °F 30.8 °F 30.2 °F 87% 30.10 in 1.0 mi SE 3.5 mph - 0.00 in Snow Light Snow
3:16 PM 33.8 °F - 30.2 °F 87% 30.11 in 1.0 mi Calm Calm - 0.01 in Snow Light Snow
3:25 PM 33.8 °F - 30.2 °F 87% 30.10 in 1.2 mi Calm Calm - 0.01 in Snow Light Snow
3:29 PM 33.8 °F - 32.0 °F 93% 30.10 in 2.0 mi Calm Calm - 0.01 in Snow Light Snow
3:48 PM 33.8 °F 30.8 °F 30.2 °F 87% 30.09 in 1.8 mi East 3.5 mph - 0.01 in Snow Light Snow
3:51 PM 33.1 °F 28.7 °F 32.0 °F 96% 30.10 in 2.0 mi East 4.6 mph - 0.01 in Snow Light Snow
4:00 PM 33.8 °F 30.8 °F 30.2 °F 87% 30.08 in 3.0 mi East 3.5 mph - 0.00 in Snow Light Snow
4:10 PM 33.8 °F 28.6 °F 32.0 °F 93% 30.08 in 3.0 mi East 5.8 mph - 0.00 in Snow Light Snow
4:51 PM 33.1 °F 30.0 °F 30.9 °F 92% 30.09 in 4.0 mi ESE 3.5 mph - 0.00 in   Overcast
4:58 PM 33.8 °F 30.8 °F 30.2 °F 87% 30.08 in 2.5 mi ESE 3.5 mph - 0.00 in Snow Light Snow
5:11 PM 32.0 °F 28.7 °F 30.2 °F 93% 30.07 in 1.5 mi East 3.5 mph - 0.00 in Snow Light Snow
5:19 PM 32.0 °F 28.7 °F 30.2 °F 93% 30.07 in 1.2 mi East 3.5 mph - 0.01 in Snow Light Snow
5:26 PM 32.0 °F 28.7 °F 30.2 °F 93% 30.07 in 1.2 mi ESE 3.5 mph - 0.01 in Snow Light Snow
5:30 PM 32.0 °F 27.5 °F 30.2 °F 93% 30.07 in 1.5 mi East 4.6 mph - 0.01 in Snow Light Snow
5:37 PM 32.0 °F 28.7 °F 30.2 °F 93% 30.06 in 3.0 mi ESE 3.5 mph - 0.01 in Snow Light Snow
5:51 PM 32.0 °F 26.4 °F 30.9 °F 96% 30.07 in 5.0 mi East 5.8 mph - 0.02 in Snow Light Snow
6:24 PM 32.0 °F 27.5 °F 30.2 °F 93% 30.05 in 2.0 mi East 4.6 mph - 0.01 in Snow Light Snow
6:39 PM 32.0 °F 28.7 °F 30.2 °F 93% 30.05 in 2.0 mi East 3.5 mph - 0.01 in Snow Light Snow
6:51 PM 32.0 °F 28.7 °F 30.9 °F 96% 30.06 in 2.5 mi East 3.5 mph - 0.01 in Snow Light Snow
7:04 PM 32.0 °F 28.7 °F 30.2 °F 93% 30.04 in 3.0 mi East 3.5 mph - 0.01 in Snow Light Snow
7:07 PM 32.0 °F - 30.2 °F 93% 30.04 in 2.5 mi Calm Calm - 0.01 in Snow Light Snow
7:22 PM 32.0 °F 27.5 °F 30.2 °F 93% 30.04 in 3.0 mi East 4.6 mph - 0.01 in Snow Light Snow
7:37 PM 32.0 °F 28.7 °F 30.2 °F 93% 30.04 in 2.0 mi ESE 3.5 mph - 0.01 in Snow Light Snow
7:51 PM 32.0 °F 28.7 °F 30.9 °F 96% 30.05 in 3.0 mi East 3.5 mph - 0.01 in Snow Light Snow
8:04 PM 32.0 °F 28.7 °F 30.2 °F 93% 30.03 in 4.0 mi East 3.5 mph - 0.01 in Snow Light Snow
8:42 PM 32.0 °F 28.7 °F 30.2 °F 93% 30.02 in 2.5 mi Variable 3.5 mph - 0.01 in Snow Light Snow
8:48 PM 32.0 °F - 30.2 °F 93% 30.02 in 3.0 mi Calm Calm - 0.01 in Snow Light Snow
8:51 PM 32.0 °F - 30.9 °F 96% 30.03 in 3.0 mi Calm Calm - 0.01 in Snow Light Snow
8:58 PM 32.0 °F - 32.0 °F 100% 30.02 in 2.0 mi Calm Calm - 0.00 in Snow Light Snow
9:12 PM 32.0 °F - 32.0 °F 100% 30.01 in 1.8 mi Calm Calm - 0.00 in Snow Light Snow
9:19 PM 32.0 °F - 32.0 °F 100% 30.00 in 2.5 mi Calm Calm - 0.00 in Snow Light Snow
9:27 PM 32.0 °F - 32.0 °F 100% 30.00 in 2.0 mi Calm Calm - 0.01 in Snow Light Snow
9:40 PM 32.0 °F - 30.2 °F 93% 30.00 in 1.8 mi Calm Calm - 0.01 in Snow Light Snow
9:49 PM 32.0 °F - 30.2 °F 93% 30.00 in 2.0 mi Calm Calm - 0.01 in Snow Light Snow
9:51 PM 32.0 °F - 30.9 °F 96% 30.02 in 2.0 mi Calm Calm - 0.01 in Snow Light Snow
10:01 PM 32.0 °F - 30.2 °F 93% 30.00 in 2.5 mi Calm Calm - 0.00 in   Overcast
10:13 PM 32.0 °F - 32.0 °F 100% 29.99 in 1.2 mi Calm Calm - 0.01 in Snow Light Snow
10:47 PM 32.0 °F - 30.2 °F 93% 29.97 in 1.5 mi Calm Calm - 0.02 in Snow Light Snow
10:51 PM 32.0 °F - 30.9 °F 96% 29.99 in 1.5 mi Calm Calm - 0.02 in Snow Light Snow
11:10 PM 32.0 °F - 30.2 °F 93% 29.96 in 2.5 mi Calm Calm - 0.00 in Snow Light Snow
11:20 PM 32.0 °F - 30.2 °F 93% 29.97 in 3.0 mi Calm Calm - 0.00 in Snow Light Snow
11:26 PM 32.0 °F - 30.2 °F 93% 29.96 in 2.5 mi Calm Calm - 0.00 in Snow Light Snow
11:51 PM 32.0 °F 28.7 °F 30.9 °F 96% 29.96 in 2.0 mi NE 3.5 mph - 0.01 in Snow Light Snow